ראשי / חיפושים אחרונים

חיפושים אחרונים

לוחית
סוג רכב
דגם
שנה
תאריך חיפוש
שעת חיפוש
6063260 פורד ספרד FOCUS 2006 27/08/2026 21:57:51
6063260 פורד ספרד FOCUS 2006 27/08/2026 21:57:51
34171504 טויוטה צרפת YARIS CROSS HSD 2025 27/08/2026 21:57:50
18565802 קיה סלובקיה SPORTAGE 2020 27/08/2026 21:57:45
3817862 מזדה יפן MAZDA 3 2007 27/08/2026 21:57:40
2467738 סקודה צ'כיה OCTAVIA 2016 27/08/2026 21:57:38
65551202 קיה קוריאה הדרומית SORENTO 2021 27/08/2026 21:57:32
5619712 סיאט סלובקיה MII 2013 27/08/2026 21:57:31
65989601 דאף אנגליה - 2020 27/08/2026 21:57:30
2403360 שברולט קוריאה הדרומית AVEO 2006 27/08/2026 21:57:29
74882902 ב מ וו בריטניה COOPER SE 2021 27/08/2026 21:57:28
8515230 פיג'ו ספרד 301 2014 27/08/2026 21:57:27
1302613 קי.טי.אמ אוסטר - 2006 27/08/2026 21:57:25
29401701 ב מ וו גרמניה 330E IPERFORMA 2017 27/08/2026 21:57:24
80538302 שברולט קוריאה הדרומית TRAIL BLAZER 2023 27/08/2026 21:57:24
70727502 טויוטה יפן RAV 4 2021 27/08/2026 21:57:16
21764302 טויוטה יפן RAV 4 2020 27/08/2026 21:57:14
9615068 קוואסאקי ארהב" - 1976 27/08/2026 21:57:11
16809003 קיה קוריאה הדרומית SORENTO 2022 27/08/2026 21:57:10
6038813 סקניה-שוודיה - 2013 27/08/2026 21:57:09
7437478 יונדאי טורקיה I20 2012 27/08/2026 21:57:08
49913404 טויוטה יפן COROLLA CROSS 2026 27/08/2026 21:57:04
81067002 קיה סלובקיה SPORTAGE 2021 27/08/2026 21:57:03
1196639 פיאט טורקיה QUBO 2016 27/08/2026 21:56:58
83554902 אאודי הונגריה Q3 2022 27/08/2026 21:56:53
79677302 גילי סין GEOMETRY C 2022 27/08/2026 21:56:50
59312103 צ'רי סין TIGGO 8 PRO 2024 27/08/2026 21:56:46
43467502 טויוטה יפן RAV 4 HYBRID 2021 27/08/2026 21:56:45
1993878 סוזוקי יפן SX4 2011 27/08/2026 21:56:44
41435304 יונדאי קוריאה הדרומית SONATA HYBRID 2025 27/08/2026 21:56:42
6728070 וולבו שבדיה - 2010 27/08/2026 21:56:39
61583702 מרצדס בנץ גרמנ - 2023 27/08/2026 21:56:30
74882902 ב מ וו בריטניה COOPER SE 2021 27/08/2026 21:56:25
2753479 ניסאן בריטניה QASHQAI 2012 27/08/2026 21:56:23
30600001 מזדה יפן CX-5 2018 27/08/2026 21:56:22
88831003 צ'רי סין FX 2024 27/08/2026 21:56:21
59427204 טויוטה יפן RAV4 HYBRID 2026 27/08/2026 21:56:13
18738403 מזדה יפן MAZDA CX-5 2022 27/08/2026 21:56:10
82801102 טויוטה טורקיה COROLLA HSD SDN 2022 27/08/2026 21:56:00
31851504 יונדאי קוריאה הדרומית KONA HYBRID 2025 27/08/2026 21:55:56
56205103 טויוטה יפן RAV 4 HYBRID 2023 27/08/2026 21:55:50
61378603 בי ווי די סין ATTO 3 2023 27/08/2026 21:55:39
8705934 פיג'ו צרפת 2008 2016 27/08/2026 21:55:31
85338701 סאן יאנג טיואן - 2019 27/08/2026 21:55:30
54188401 מרצדס בנץ גרמנ - 2019 27/08/2026 21:55:28
49620301 פיאט טורקיה FIAT DOBLO 2018 27/08/2026 21:55:20
5468460 פיאט טורקיה DOBLO 2008 27/08/2026 21:55:19
32884703 צ'רי סין TIGGO 7 PRO 2023 27/08/2026 21:55:18
13372503 סיטרואן ספרד C4 SPACETOURER 2022 27/08/2026 21:55:10
85891603 סיאט צ'כיה ATECA 2024 27/08/2026 21:54:57
87957203 סיטרואן ספרד BERLINGO 2025 27/08/2026 21:54:51
62151401 סובארו יפן FORESTER 2018 27/08/2026 21:54:50
39476603 מזדה יפן MAZDA CX-5 2023 27/08/2026 21:54:36
17467002 סובארו יפן FORESTER 2020 27/08/2026 21:54:30
2830237 טויוטה צרפת YARIS 2016 27/08/2026 21:54:26
7225579 טויוטה צרפת YARIS 2012 27/08/2026 21:54:26
5130316 ב מ וו גרמניה במוו AI 825 1998 27/08/2026 21:54:23
1088866 שברולט ארהב" MALIBU 2008 27/08/2026 21:54:22
11162702 פיג'ו סלובקיה 208 2020 27/08/2026 21:54:15
18251803 מרצדס גרמניה S580 E 2023 27/08/2026 21:54:10
74922501 אאודי גרמניה A7 2019 27/08/2026 21:53:55
1111760 טויוטה יפן LAND CRUISER 2006 27/08/2026 21:53:54
33241802 טויוטה יפן LAND CRUISER 2021 27/08/2026 21:53:50
49620301 פיאט טורקיה FIAT DOBLO 2018 27/08/2026 21:53:48
6888878 יונדאי קוריאה הדרומית VELOSTER 2012 27/08/2026 21:53:34
41640101 קיה קוריאה הדרומית PICANTO 2018 27/08/2026 21:53:33
27669103 מרצדס בנץ גרמנ - 2023 27/08/2026 21:53:30
62663902 יונדאי צ'כיה TUCSON 2021 27/08/2026 21:53:12
36774104 מ.ג סין EHS 2026 27/08/2026 21:53:10
47780402 פיאגיו - 2021 27/08/2026 21:53:01
49620301 פיאט טורקיה FIAT DOBLO 2018 27/08/2026 21:52:58
45463904 מרצדס גרמניה AMG EQE53 4M 2025 27/08/2026 21:52:56
20389403 מ.ג סין MARVEL R 2024 27/08/2026 21:52:51
94005801 מרצדס גרמניה SPRINTER 2021 27/08/2026 21:52:50
33133501 לואד רייט - 2023 27/08/2026 21:52:46
2147431 יונדאי טורקיה I20 2014 27/08/2026 21:52:43
1002333 פיאט טורקיה DOBLO 1.3 COMBI 2015 27/08/2026 21:52:42
25853901 סיאט ספרד LEON 2017 27/08/2026 21:52:32
52201603 בי ווי די סין ATTO 3 2023 27/08/2026 21:52:30
22312203 טויוטה צרפת YARIS HYBRID 2022 27/08/2026 21:52:30
49620301 פיאט טורקיה FIAT DOBLO 2018 27/08/2026 21:52:28
5417430 טויוטה יפן RAV 4 2014 27/08/2026 21:52:23
5255575 מזדה יפן CX-5 2012 27/08/2026 21:52:17
1049662 טויוטה בריטניה COROLLA RUNX 2007 27/08/2026 21:52:16
54115804 ב מ וו ארהב" X4 XDRIVE20I 2026 27/08/2026 21:52:12
6888878 יונדאי קוריאה הדרומית VELOSTER 2012 27/08/2026 21:52:12
45463904 מרצדס גרמניה AMG EQE53 4M 2025 27/08/2026 21:52:10
57596503 מרצדס גרמניה AMG C43 4MATIC 2024 27/08/2026 21:52:10
67583101 הונדה יפן HR-V 2020 27/08/2026 21:52:08
3157185 קיה סלובקיה CEED 2017 27/08/2026 21:52:08
5907616 ב מ וו גרמניה 530I 2007 27/08/2026 21:52:07
7135950 פיג'ו צרפת 206 2003 27/08/2026 21:51:59
49620301 פיאט טורקיה FIAT DOBLO 2018 27/08/2026 21:51:58
82867001 דאצ'יה רומניה DUSTER 2019 27/08/2026 21:51:53
22107403 טויוטה יפן TOYOTA BZ4X 2022 27/08/2026 21:51:50
1097279 פיאט פולין FIAT 500 2011 27/08/2026 21:51:49
65114404 צ'רי סין TIGGO 4 HYBRID 2026 27/08/2026 21:51:49
1340373 יונדאי קוריאה הדרומית TOCSON 2010 27/08/2026 21:51:48
9166852 אאודי גרמניה A7 2014 27/08/2026 21:51:43
80421403 ג'יפ פולין AVENGER 2024 27/08/2026 21:51:39
7439053 פולקסווגן מקסיקה JETTA 2015 27/08/2026 21:51:38
4275069 פורד תורכיה TOURNEO CONNECT 2009 27/08/2026 21:51:34
67351201 הונדה איטליה - 2019 27/08/2026 21:51:33
49620301 פיאט טורקיה FIAT DOBLO 2018 27/08/2026 21:51:33
15520803 ב מ וו גרמניה 218I 2022 27/08/2026 21:51:30
7135950 פיג'ו צרפת 206 2003 27/08/2026 21:51:28
8580874 סאנגיונג קוריאה הדרומית REXTON 2011 27/08/2026 21:51:28
7135950 פיג'ו צרפת 206 2003 27/08/2026 21:51:27
40777904 קיה קוריאה הדרומית PICANTO 2025 27/08/2026 21:51:27
61434201 קרייזלר מכסיקו - 2019 27/08/2026 21:51:27
81498703 אאודי הונגריה Q3 SPORTBACK 2024 27/08/2026 21:51:23
1152468 סוזוקי יפן SWIFT 2009 27/08/2026 21:51:18
1049662 טויוטה בריטניה COROLLA RUNX 2007 27/08/2026 21:51:14
7496823 טויוטה יפן COROLLA 2001 27/08/2026 21:51:13
54945801 יונדאי קוריאה הדרומית IONIQ HYBRID 2019 27/08/2026 21:51:10
49161303 פיג'ו ספרד 2008 2023 27/08/2026 21:51:10
5599374 סוזוקי יפן SX4 2011 27/08/2026 21:51:09
51466804 ג'אקו סין JAECOO7 PHEV 2026 27/08/2026 21:51:08
47392603 ימהה צרפת - 2023 27/08/2026 21:51:04
54417403 קיה סלובקיה CEED 2023 27/08/2026 21:51:03
2854368 פיג'ו צ'כיה 107 2009 27/08/2026 21:51:03
56273701 יוטונג סין - 2019 27/08/2026 21:51:01
7135950 פיג'ו צרפת 206 2003 27/08/2026 21:50:59
2902470 טויוטה יפן COROLLA 2009 27/08/2026 21:50:58
67840604 אלפא רומיאו פולין JUNIOR 2026 27/08/2026 21:50:53
1131774 יונדאי צ'כיה I30 2010 27/08/2026 21:50:51
9469355 פיג'ו צרפת - 1992 27/08/2026 21:50:50
1592037 טויוטה יפן LAND CRUISER 2016 27/08/2026 21:50:50
25677604 צ'רי סין TIGGO 7 PRO 2025 27/08/2026 21:50:50
9647967 קרייזלר ארהב" WRANGLER 2008 27/08/2026 21:50:48
80230401 סיאט אוסטה - 2020 27/08/2026 21:50:48
54115804 ב מ וו ארהב" X4 XDRIVE20I 2026 27/08/2026 21:50:47
4717537 יונדאי קוריאה הדרומית I35 2016 27/08/2026 21:50:47
82144101 יונדאי קוריאה הדרומית KONA 2019 27/08/2026 21:50:43
3368519 דייהטסו יפן אפלאוז IL אוט' 1997 27/08/2026 21:50:39
7122562 פיג'ו צרפת 307 2007 27/08/2026 21:50:38
33355504 ב מ וו גרמניה M3 CS 2024 27/08/2026 21:50:37
1276234 מרצדס גרמניה C180 2016 27/08/2026 21:50:34
4220714 יונדאי קוריאה GETZ 2006 27/08/2026 21:50:34
5599374 סוזוקי יפן SX4 2011 27/08/2026 21:50:33
58484102 סאן יאנג סין - 2021 27/08/2026 21:50:32
7272138 קיה סלובקיה CEED 2016 27/08/2026 21:50:30
74885201 פולקסווגן פולי - 2019 27/08/2026 21:50:30
71440201 רובר בריטניה RANGE ROVER 2020 27/08/2026 21:50:29
4227673 סיטרואן תורכיה BERLINGO 2010 27/08/2026 21:50:28
1686075 סובארו יפן FORESTER 2012 27/08/2026 21:50:23
57596503 מרצדס גרמניה AMG C43 4MATIC 2024 27/08/2026 21:50:22
6430767 סובארו יפן OUTBACK 2010 27/08/2026 21:50:18
28858603 סקניה-הולנד - 2026 27/08/2026 21:50:15
1126967 פיאט איטליה PUNT0 1.4 2009 27/08/2026 21:50:13
5354911 מרצדס גרמניה E300 2014 27/08/2026 21:50:10
12968002 ימהה אינדונזיה - 2020 27/08/2026 21:50:10
59914301 ב מ וו גרמניה 218I 2019 27/08/2026 21:50:09
54188401 מרצדס בנץ גרמנ - 2019 27/08/2026 21:50:09
19646902 פורשה גרמניה PANAMERA 4S E-H 2021 27/08/2026 21:50:08
89954401 טויוטה יפן RAV 4 2020 27/08/2026 21:50:03
2556879 רנו רומניה LOGAN MCV 2011 27/08/2026 21:50:03
8580220 יונדאי קוריאה הדרומית LANTRA 1999 27/08/2026 21:50:01
59914301 ב מ וו גרמניה 218I 2019 27/08/2026 21:50:00
3215852 קיה קוריאה הדרומית FORTE 2013 27/08/2026 21:49:58
2864066 יונדאי קוריאה הדרומית I30 2008 27/08/2026 21:49:58
5077134 פולקסווגן גרמניה GOLF 2015 27/08/2026 21:49:53
21808003 טויוטה יפן LAND CRUISER 2022 27/08/2026 21:49:53
2516631 יונדאי קוריאה הדרומית SANTA FE 2014 27/08/2026 21:49:53
46017501 טויוטה צרפת YARIS 2019 27/08/2026 21:49:50
26918002 מזדה יפן MAZDA 3 2020 27/08/2026 21:49:50
22808002 סקודה צ'כיה KODIAQ 2020 27/08/2026 21:49:48
17155801 מיצובישי תאילנד SPACE STAR 2018 27/08/2026 21:49:47
62701902 מיצובישי תאילנד L200 2021 27/08/2026 21:49:45
89994702 סוזוקי הונגריה VITARA 2022 27/08/2026 21:49:43
5744269 איסוזו תאילנד PICK-UP 2009 27/08/2026 21:49:41
12974804 צ'רי סין TIGGO 8 PRO 2024 27/08/2026 21:49:41
7380853 אאודי בלגיה A1 2015 27/08/2026 21:49:38
2028378 קרייזלר מכסיקו - 2011 27/08/2026 21:49:35
11736102 רנו טורקיה MEGANE 2020 27/08/2026 21:49:33
8851479 טויוטה טורקיה VERSO 2013 27/08/2026 21:49:32
51756403 פורד ד אפריקה RANGER 2024 27/08/2026 21:49:30
5255575 מזדה יפן CX-5 2012 27/08/2026 21:49:28
58080402 טסלה ארהב" MODEL 3 2021 27/08/2026 21:49:27
1044464 ביואיק קנדה LACROSSE 2007 27/08/2026 21:49:22
39223202 פיג'ו צרפת 5008 2021 27/08/2026 21:49:21
88165601 יונדאי קוריאה הדרומית IONIQ HYBRID 2020 27/08/2026 21:49:18
8667384 ק.ל איטליה - 2017 27/08/2026 21:49:11
47829503 יונדאי טורקיה BAYON 2023 27/08/2026 21:49:10
9734571 נגררי השרון - 2010 27/08/2026 21:49:07
9044770 נאנגינג סין - 2017 27/08/2026 21:49:05
1870434 יונדאי קוריאה הדרומית I25 2015 27/08/2026 21:49:02
40105702 מרצדס הונגריה A180 2021 27/08/2026 21:49:01
79591601 אופל ספרד CORSA 2020 27/08/2026 21:48:59
5850970 וולבו בלגיה XC60 2009 27/08/2026 21:48:57
54945801 יונדאי קוריאה הדרומית IONIQ HYBRID 2019 27/08/2026 21:48:54
4724230 טויוטה טורקיה COROLLA 2014 27/08/2026 21:48:52
16648504 סקודה צ'כיה SCALA FL 2025 27/08/2026 21:48:52
62595603 יונדאי קוריאה הדרומית ELANTRA HEV 2024 27/08/2026 21:48:51
8330381 לקסוס יפן LEXUS CT200H 2016 27/08/2026 21:48:50
15854402 סובארו יפן XV 2020 27/08/2026 21:48:50
24793701 שברולט מקסיקו EQUINOX 2017 27/08/2026 21:48:46
12225904 מיצובישי יפן OUTLANDER 2025 27/08/2026 21:48:42
66610703 מרכבי נוע בעמ - 2023 27/08/2026 21:48:42
3511800 עצמי - 1994 27/08/2026 21:48:41
וואטסאפ